Tracking 26240 objects as of 6-Oct-2022
HD Live streaming from Space Station
objects crossing your sky now

STARLINK-3337

Track STARLINK-3337 now!
10-day predictions
STARLINK-3337 is classified as:


NORAD ID: 50826
Int'l Code: 2022-001Z
Perigee: 545.7 km
Apogee: 548.0 km
Inclination: 53.2 °
Period: 95.4 minutes
Semi major axis: 6917 km
RCS: Unknown
Launch date: January 6, 2022
Source: United States (US)
Launch site: AIR FORCE EASTERN TEST RANGE (AFETR)
aabbcc
Your satellite tracking list
Your tracking list is empty




NASA's NSSDC Master Catalog

Two Line Element Set (TLE):
1 50826U 22001Z   22278.44982292  .00001501  00000-0  11239-3 0  9993
2 50826  53.2182  26.1431 0001664  58.9374 301.1781 15.08838032 41514
Source of the keplerian elements: AFSPC